Location: *
(49.8044°N, 4.0558°E)
Time: 17:28:38
(UTC+00:00)

STARLINK-1204 - Pass Details

Date: 09 April 2020
Orbit: 548 x 551 km, 53.0° (Epoch: 26 May)

Event Time Altitude Azimuth Distance (km) Brightness Sun altitude
Rises 19:51:13 0° 291° (WNW) 2,736 9.1 -13.2°
Reaches altitude 10° 19:53:38 10° 282° (WNW) 1,838 7.5 -13.5°
Maximum altitude 19:57:19 31° 219° (SW) 984 5.0 -14.0°
Enters shadow 20:00:00 16° 165° (SSE) 1,491 5.4 -14.4°
